Voltar ao catálogo

OPS 9333

IDSCS 18

AtivoMilitarMEO
NORAD 2864·PAYLOAD·🇺🇸 United States

Lançado Jul 1, 1967 de Cape Canaveral Space Force Station

Loading…

Próximas Passagens (próximas 24 horas)

TLE

EnvelhecendoSource: Space-Track

Época: Aug 30, 2026, 19:25 UTC

1  2864U 67066C   26242.80939602 -.00000075  00000-0  00000+0 0  9990
2  2864   2.9526  93.5945 0056682 239.5771 243.1637  1.09785855132361

Acompanhe OPS 9333 em tempo real com AllMySat

Download on the App Store